Temp
9 9 9 9 9 9 9 9 9 9 9 9 9 9 9 9 8 8 8 8 8 8 9 9 9 9 9 9 9 9 8 8 9 9 9 9 10 10 10 10 10 10 10
9 9 9 9 9 9 9 9 9 9 9 9 9 9 9 8 8 8 8 8 8 8 9 9 9 9 9 9 9 9 9 9 8 9 9 9 10 10 10 10 10 10 9
9 9 9 9 9 9 9 9 9 9 9 9 9 9 9 8 8 8 8 8 8 8 9 8 8 9 9 8 9 8 8 9 9 9 9 9 10 10 10 9 9 9 9
9 9 9 9 9 9 8 8 9 9 9 9 9 8 9 8 8 8 8 8 8 8 8 8 8 8 8 8 8 8 8 8 8 9 9 9 9 9 9 9 9 9 9
9 9 9 9 9 9 8 8 8 9 9 9 9 9 8 8 8 8 8 8 8 8 8 8 9 8 8 8 8 8 8 8 8 8 9 9 9 9 9 9 9 9 8
9 9 9 9 9 8 8 8 9 9 9 9 9 9 8 9 9 8 8 8 9 9 9 8 8 8 8 8 8 8 8 8 8 9 9 9 9 9 9 9 9 8 8
9 9 9 9 9 8 8 8 9 9 9 9 9 9 9 8 8 8 8 8 8 9 8 8 8 8 8 8 8 8 8 8 8 8 8 8 9 9 9 8 8 8 8
9 9 9 9 9 8 8 8 9 9 9 9 9 9 9 9 9 9 8 9 9 9 8 7 8 8 8 7 7 7 8 8 8 8 8 8 8 8 8 8 8 8 8
9 9 9 9 9 8 8 9 9 9 9 8 8 9 9 9 9 9 9 9 9 8 8 8 8 8 8 7 7 7 8 8 8 8 8 8 8 8 8 8 8 8 8
9 9 9 9 8 9 9 9 9 9 8 8 8 8 9 8 9 9 8 8 9 8 8 8 7 8 8 8 7 7 8 8 8 8 8 8 8 8 8 8 8 8 8
9 9 9 9 9 9 9 9 9 8 8 8 8 8 8 8 8 8 8 8 8 8 7 7 7 7 7 7 7 8 8 8 8 9 9 8 8 9 8 8 8 8 8
9 9 9 9 9 9 9 9 8 8 8 8 8 8 8 8 8 8 7 7 7 7 8 7 7 7 7 7 7 7 7 8 8 8 8 8 9 8 8 8 8 8 8
9 10 10 9 9 9 9 9 9 9 8 8 9 8 8 8 8 7 7 7 7 7 7 7 7 7 6 5 6 7 7 7 8 8 8 8 9 9 8 8 8 8 8
10 10 9 9 9 9 9 8 9 8 8 9 9 8 8 8 8 7 7 7 7 7 7 7 7 6 6 5 5 6 7 7 7 8 8 9 9 9 8 8 8 8 8
10 10 10 9 9 9 9 9 9 8 8 9 8 9 8 7 6 6 7 7 7 7 7 7 7 6 5 5 5 6 6 7 7 8 8 8 8 8 8 9 8 8 8
10 10 10 9 9 9 9 9 8 8 9 9 9 9 8 8 7 7 7 7 8 8 7 7 7 6 5 5 6 6 6 6 7 7 7 8 8 8 8 9 8 8 8
10 10 10 10 9 9 9 9 9 8 9 9 9 9 8 8 8 7 7 8 8 8 8 8 7 7 5 5 5 6 6 6 7 7 7 8 8 8 8 8 8 8 8
10 10 10 10 9 9 9 9 9 9 9 9 9 9 9 8 8 8 8 8 8 7 7 7 7 6 5 5 5 5 5 6 6 6 7 8 8 8 8 8 8 8 8
11 10 10 10 10 9 9 9 9 9 9 9 9 9 9 9 9 8 8 8 8 7 6 6 6 5 5 5 5 5 5 6 5 6 7 7 8 8 8 8 8 8 8
11 10 10 10 10 10 9 9 9 9 9 9 9 10 10 9 9 9 8 8 8 7 6 6 6 5 5 5 5 5 5 5 5 6 7 7 8 8 8 9 8 8 8
11 11 10 10 10 10 10 10 9 9 9 9 10 9 9 10 10 9 9 8 8 7 8 7 6 5 5 5 5 5 5 6 5 6 6 7 8 8 8 9 9 9 9
11 11 11 10 10 10 10 10 10 9 9 9 10 9 9 10 10 10 9 8 8 8 8 8 7 6 6 6 5 6 6 6 5 6 7 7 7 7 8 9 9 9 9
11 11 11 11 11 11 10 10 10 10 10 10 10 10 10 9 10 10 10 9 9 9 8 8 8 8 7 6 7 7 6 6 6 6 7 8 8 8 8 8 9 9 9
12 11 11 11 12 11 10 10 10 10 10 10 10 10 10 10 10 10 10 9 9 9 9 9 9 8 7 7 7 7 7 6 6 7 7 8 8 8 9 9 9 9 8
12 12 11 11 11 11 11 10 10 11 10 10 10 10 10 10 10 10 10 10 9 9 9 9 9 9 8 8 7 7 7 7 7 7 8 8 8 9 9 9 9 9 9
13 12 11 11 12 11 11 11 11 11 11 10 10 10 10 10 10 10 10 10 10 10 9 9 10 10 9 9 9 8 8 8 8 8 8 8 9 9 10 10 10 10 9
Height
3170 3173 3176 3180 3182 3185 3187 3189 3191 3193 3194 3194 3195 3196 3198 3199 3200 3200 3200 3201 3201 3202 3201 3201 3201 3201 3202 3202 3202 3203 3204 3206 3208 3210 3211 3213 3214 3216 3216 3216 3216 3216 3216
3173 3175 3178 3182 3184 3187 3189 3191 3193 3194 3195 3196 3197 3198 3199 3200 3201 3201 3201 3202 3203 3203 3203 3203 3203 3204 3204 3204 3203 3203 3204 3206 3208 3210 3212 3214 3216 3216 3217 3218 3218 3218 3217
3175 3177 3180 3183 3186 3188 3190 3193 3194 3196 3197 3197 3198 3199 3200 3201 3201 3202 3203 3203 3204 3204 3204 3204 3205 3205 3205 3205 3205 3204 3205 3207 3209 3211 3214 3216 3217 3218 3218 3219 3219 3219 3219
3177 3179 3182 3185 3188 3190 3192 3194 3196 3198 3199 3200 3200 3201 3202 3203 3205 3205 3205 3205 3206 3205 3206 3206 3206 3206 3206 3206 3206 3206 3206 3207 3210 3212 3215 3217 3219 3219 3220 3221 3221 3221 3220
3179 3181 3185 3187 3190 3192 3194 3196 3198 3199 3201 3202 3203 3204 3205 3206 3207 3207 3208 3207 3206 3207 3207 3208 3208 3208 3207 3207 3206 3207 3208 3209 3211 3214 3216 3219 3220 3221 3222 3222 3222 3221 3221
3181 3184 3187 3190 3192 3195 3197 3199 3200 3202 3203 3204 3205 3206 3207 3207 3208 3208 3209 3209 3208 3208 3208 3208 3209 3209 3208 3209 3209 3208 3209 3211 3214 3216 3219 3221 3222 3222 3223 3223 3222 3222 3222
3183 3186 3189 3192 3194 3197 3199 3201 3203 3204 3206 3207 3207 3208 3209 3210 3211 3210 3210 3210 3209 3209 3209 3209 3210 3210 3211 3211 3212 3211 3212 3214 3215 3218 3220 3222 3223 3223 3224 3224 3224 3224 3224
3186 3188 3191 3194 3196 3198 3200 3203 3205 3206 3208 3209 3210 3211 3212 3213 3213 3212 3211 3211 3211 3210 3210 3210 3212 3213 3213 3213 3214 3214 3215 3216 3218 3220 3222 3223 3223 3224 3225 3225 3225 3226 3226
3187 3191 3193 3195 3197 3200 3202 3204 3206 3208 3210 3211 3213 3213 3215 3215 3215 3215 3214 3213 3213 3213 3214 3214 3215 3215 3216 3217 3218 3218 3218 3220 3221 3222 3223 3223 3224 3225 3226 3227 3227 3227 3227
3188 3191 3194 3196 3199 3201 3204 3206 3208 3210 3212 3213 3215 3215 3217 3217 3218 3217 3216 3217 3217 3216 3217 3218 3218 3219 3219 3220 3221 3221 3222 3223 3223 3223 3225 3226 3226 3226 3227 3228 3229 3229 3229
3188 3192 3195 3197 3200 3203 3205 3208 3210 3212 3214 3216 3217 3218 3219 3220 3220 3221 3220 3220 3220 3220 3220 3221 3222 3222 3222 3223 3224 3224 3225 3225 3225 3226 3226 3227 3228 3228 3229 3230 3230 3230 3231
3187 3192 3195 3198 3201 3204 3207 3209 3212 3214 3216 3217 3219 3220 3221 3222 3222 3223 3223 3223 3222 3222 3223 3223 3225 3225 3225 3225 3226 3227 3227 3227 3227 3227 3228 3229 3230 3230 3230 3231 3232 3232 3232
3189 3192 3195 3199 3203 3206 3208 3211 3213 3215 3217 3219 3220 3221 3222 3223 3224 3225 3225 3225 3224 3224 3224 3225 3226 3226 3227 3228 3228 3228 3228 3228 3229 3228 3229 3231 3231 3232 3232 3233 3233 3234 3234
3189 3193 3196 3200 3204 3206 3209 3212 3214 3216 3219 3220 3221 3223 3224 3225 3226 3227 3227 3227 3226 3225 3226 3227 3227 3227 3228 3228 3228 3229 3229 3230 3230 3230 3231 3233 3233 3234 3234 3234 3235 3235 3235
3189 3193 3197 3201 3204 3207 3210 3213 3215 3217 3220 3222 3223 3225 3226 3226 3227 3227 3228 3228 3228 3228 3227 3227 3229 3228 3229 3229 3229 3230 3230 3230 3231 3232 3232 3233 3234 3235 3236 3236 3236 3236 3236
3190 3194 3198 3202 3205 3208 3211 3213 3216 3218 3221 3223 3225 3227 3228 3228 3228 3228 3229 3229 3229 3229 3228 3229 3230 3229 3230 3230 3230 3230 3231 3232 3232 3233 3234 3235 3236 3237 3237 3237 3237 3237 3237
3191 3194 3198 3202 3205 3209 3212 3214 3217 3219 3222 3224 3226 3228 3229 3229 3229 3229 3230 3230 3230 3230 3230 3230 3230 3230 3231 3231 3231 3231 3232 3233 3233 3234 3235 3236 3237 3237 3238 3238 3238 3237 3238
3190 3194 3198 3201 3205 3209 3212 3215 3218 3220 3222 3224 3226 3228 3230 3230 3230 3231 3232 3232 3231 3231 3232 3232 3232 3231 3232 3232 3232 3233 3234 3234 3234 3235 3236 3237 3237 3237 3237 3238 3238 3238 3238
3190 3193 3197 3200 3205 3209 3212 3215 3218 3220 3222 3224 3226 3228 3230 3230 3231 3233 3233 3233 3234 3233 3233 3233 3233 3233 3232 3233 3234 3235 3235 3235 3235 3235 3236 3236 3237 3237 3237 3237 3237 3237 3238
3188 3192 3195 3199 3204 3207 3211 3214 3216 3219 3222 3225 3226 3228 3230 3231 3232 3233 3234 3235 3235 3235 3235 3234 3234 3234 3235 3236 3236 3236 3236 3236 3236 3236 3236 3236 3237 3236 3237 3238 3237 3238 3238
3184 3189 3193 3196 3201 3204 3208 3212 3215 3219 3222 3225 3226 3228 3230 3231 3233 3234 3235 3235 3236 3236 3236 3235 3235 3235 3236 3237 3238 3238 3238 3238 3238 3238 3237 3237 3237 3237 3238 3237 3237 3238 3238
3181 3185 3189 3194 3198 3202 3207 3211 3215 3218 3221 3224 3225 3227 3229 3231 3233 3234 3235 3236 3237 3237 3237 3236 3236 3235 3236 3237 3238 3238 3239 3241 3240 3239 3239 3239 3239 3239 3240 3240 3239 3238 3239
3176 3181 3186 3191 3195 3199 3204 3208 3211 3214 3217 3220 3224 3226 3229 3231 3232 3234 3235 3236 3237 3237 3238 3237 3237 3236 3236 3237 3238 3240 3241 3242 3241 3241 3241 3241 3241 3241 3241 3241 3241 3240 3239
3173 3178 3182 3187 3193 3197 3200 3204 3209 3213 3217 3221 3223 3225 3227 3230 3231 3233 3235 3236 3237 3237 3238 3238 3238 3238 3237 3238 3240 3241 3242 3243 3243 3244 3243 3243 3243 3242 3243 3242 3242 3242 3241
3170 3174 3178 3183 3188 3193 3197 3202 3206 3210 3214 3217 3220 3223 3225 3228 3230 3232 3234 3236 3237 3237 3238 3239 3239 3239 3239 3240 3241 3242 3243 3244 3245 3245 3245 3245 3245 3245 3244 3244 3243 3243 3242
3167 3171 3174 3178 3184 3189 3194 3199 3202 3206 3211 3215 3218 3220 3224 3227 3229 3231 3233 3235 3236 3237 3238 3238 3240 3240 3241 3242 3242 3243 3244 3246 3246 3247 3247 3246 3247 3247 3247 3246 3246 3245 3244
Wind_Speed
30 29 27 23 21 17 15 17 17 17 16 15 14 14 13 13 13 12 12 12 13 14 13 11 11 9 8 5 4 6 8 9 11 11 10 9 8 7 7 8 6 6 7
29 29 26 22 19 16 15 16 16 16 15 14 13 13 12 12 12 12 12 10 11 12 14 15 13 11 9 9 8 6 7 10 10 12 11 9 8 7 7 6 4 5 6
27 27 25 21 16 14 15 16 16 14 13 13 13 12 12 12 12 11 11 10 10 9 10 11 12 12 12 11 10 8 8 10 12 12 13 11 8 7 6 4 4 4 5
26 26 23 19 15 14 15 15 15 14 12 12 13 13 13 12 11 11 10 9 9 8 8 8 9 10 11 10 11 10 10 13 14 15 16 12 9 8 7 5 4 4 6
26 24 21 18 15 14 15 14 13 13 13 13 14 14 13 12 12 11 11 9 7 6 6 6 7 9 10 11 11 12 14 15 15 15 16 14 10 8 7 5 4 6 8
27 24 20 17 15 14 15 15 14 13 13 14 15 14 14 13 12 10 8 7 5 5 5 6 9 11 13 14 12 13 15 17 16 15 16 13 10 6 5 5 6 8 8
27 23 19 16 14 15 16 16 14 13 13 14 14 13 12 11 10 10 8 7 6 7 9 8 10 12 14 14 15 17 15 15 17 16 14 11 7 6 6 7 8 8 8
25 22 18 16 16 16 16 16 15 13 12 12 13 11 10 9 9 10 10 9 10 11 11 11 12 12 14 14 15 16 17 17 16 15 13 11 9 9 8 8 8 7 7
25 19 16 15 17 17 16 15 14 13 12 12 11 9 8 9 8 11 15 14 16 14 16 15 15 14 14 14 16 16 16 16 16 14 12 12 10 9 8 8 7 8 8
25 19 15 15 17 16 16 15 14 13 12 11 10 8 7 8 10 11 16 16 20 17 16 15 17 16 15 16 16 14 15 13 13 13 12 11 11 11 10 9 9 8 8
25 20 16 17 17 16 16 15 14 13 12 12 11 8 8 9 10 10 12 16 15 16 15 16 14 14 14 14 14 12 11 10 11 12 12 11 12 12 11 10 9 9 8
26 21 19 19 17 16 16 15 13 12 12 11 10 9 9 9 11 11 9 12 12 11 12 9 11 10 12 14 13 11 10 9 10 12 11 10 11 11 10 10 10 9 8
24 21 21 20 18 16 16 14 13 12 11 10 10 10 10 9 10 9 7 7 9 8 9 8 8 7 14 8 8 9 10 10 9 11 11 10 10 11 10 10 10 8 7
24 21 22 21 19 17 17 15 13 12 11 11 13 10 11 11 11 7 5 5 7 4 6 7 7 9 11 7 9 8 6 7 9 11 11 10 8 9 9 10 9 8 7
24 23 22 21 20 18 17 15 12 13 12 14 12 11 10 10 8 7 5 3 2 4 3 3 7 7 8 8 8 7 6 8 9 10 10 10 9 8 9 9 8 7 6
24 23 23 22 20 18 17 15 12 15 12 12 8 11 10 9 7 6 5 6 2 4 3 2 3 6 6 5 5 7 9 10 11 10 8 8 8 6 7 7 6 5 4
24 24 24 22 21 19 17 16 14 11 12 13 9 9 8 9 9 7 7 7 3 4 4 4 4 6 8 4 5 8 12 11 11 8 7 7 6 5 4 3 2 2 1
26 25 26 24 22 20 18 16 14 13 11 11 9 10 8 8 7 7 6 7 3 3 4 7 8 13 9 6 5 11 11 10 10 6 5 5 4 3 3 3 3 3 3
25 27 28 26 23 20 19 17 14 14 12 11 11 11 9 8 7 4 4 6 3 2 3 4 7 11 11 13 16 12 9 11 9 7 5 4 4 4 4 3 5 5 3
27 28 28 28 25 23 21 19 17 14 15 13 11 8 8 8 7 5 4 3 2 1 3 3 5 8 5 8 10 9 13 10 9 6 7 7 5 5 3 5 6 5 3
29 30 31 31 29 27 24 22 19 15 16 15 13 10 7 7 7 6 5 2 2 3 3 2 4 9 9 8 5 11 12 6 8 9 10 11 11 8 5 5 3 2 1
28 29 33 33 31 28 25 21 18 16 16 16 16 12 8 6 7 7 5 3 3 4 3 3 2 7 7 9 9 9 11 9 8 8 10 10 10 10 10 9 8 7 5
33 31 30 33 32 30 27 24 22 23 23 22 16 12 9 7 6 6 5 5 4 3 3 4 3 5 6 7 10 12 10 7 6 5 7 8 7 8 9 9 8 7 5
33 33 29 30 32 31 30 28 25 22 20 17 15 12 10 9 7 7 7 6 4 4 3 4 4 6 8 9 11 11 11 10 8 6 5 5 5 6 6 6 6 5 4
29 34 34 32 33 34 32 30 27 23 20 18 16 14 13 11 9 9 9 8 7 5 5 4 5 7 10 12 11 10 10 10 9 8 7 7 6 6 7 7 6 6 5
20 29 35 36 35 36 35 33 29 26 23 20 17 16 14 12 11 10 10 10 9 8 7 7 8 8 9 10 11 11 11 10 10 10 10 10 9 9 9 10 9 10 9
Wind_Direction
146 144 141 140 136 132 127 119 118 119 118 113 111 112 114 111 111 105 97 89 87 84 84 96 96 92 96 97 134 155 164 160 171 165 153 136 135 130 100 77 65 64 60
149 144 142 141 138 133 126 122 122 116 110 107 107 109 111 110 111 104 99 98 95 91 89 89 91 88 89 91 101 123 158 174 168 168 160 148 145 123 103 84 70 65 57
155 146 144 141 135 134 129 125 119 111 106 106 110 111 105 108 110 107 104 102 101 93 88 85 86 87 94 97 89 113 132 155 171 167 164 158 136 123 121 93 76 62 63
156 147 143 139 140 138 130 127 122 117 113 112 110 106 106 110 108 107 105 101 103 102 94 94 92 100 94 86 87 85 125 141 154 158 161 157 139 109 117 101 78 79 77
155 148 145 142 146 144 138 134 128 123 118 117 112 111 114 111 110 107 105 102 96 83 71 74 81 90 89 76 72 78 109 126 139 147 155 153 136 120 111 100 86 87 89
157 152 149 148 150 153 147 141 138 130 127 119 117 120 118 116 113 104 96 93 86 68 72 89 94 104 95 89 83 90 106 120 130 139 148 149 137 125 107 95 94 92 91
159 154 152 151 155 155 149 148 144 138 131 126 122 125 126 118 108 98 87 83 74 70 73 80 97 106 107 96 95 91 101 111 118 127 135 139 132 119 102 98 93 88 91
162 155 155 154 156 153 150 149 147 144 136 131 129 127 120 109 102 95 86 77 87 91 88 96 106 113 110 99 100 102 105 110 118 128 131 131 123 114 107 100 98 92 90
163 160 156 159 156 154 152 151 148 146 140 132 130 125 115 106 104 98 80 82 92 90 90 96 104 114 116 117 109 112 114 119 121 124 130 128 122 111 102 99 98 94 86
165 162 161 162 160 159 156 152 148 148 138 134 128 121 106 105 100 104 92 88 87 91 97 99 105 110 114 121 123 116 114 117 122 120 116 115 115 110 102 95 89 84 81
168 163 164 163 161 161 156 150 150 146 142 139 138 129 116 108 104 101 94 94 92 96 96 101 100 102 107 111 118 119 119 121 118 117 117 118 112 108 101 96 90 85 85
169 165 165 161 160 160 151 151 152 152 147 147 142 136 128 112 109 104 94 91 89 96 94 105 111 101 112 111 112 114 112 116 119 119 118 113 108 108 106 100 92 90 91
169 169 165 161 160 159 152 157 160 156 149 147 142 141 134 122 115 99 97 93 85 94 97 103 113 129 119 134 119 122 114 106 114 118 110 107 105 107 112 105 98 92 89
172 172 169 165 163 164 158 162 165 160 153 143 137 131 134 124 118 95 86 86 91 87 90 96 104 96 137 124 133 119 115 101 109 107 101 101 104 107 106 102 101 94 88
175 176 173 170 167 167 166 167 169 172 159 152 141 137 132 125 106 85 84 83 128 93 106 90 81 111 104 118 133 146 118 126 123 114 109 110 107 102 102 102 94 92 86
179 179 178 175 171 173 171 171 165 155 161 162 136 144 137 140 111 101 59 35 77 93 97 106 69 116 126 97 105 136 130 130 124 118 110 115 108 98 100 100 101 93 89
182 184 183 181 178 179 177 179 175 161 156 156 151 155 142 139 116 88 50 24 85 77 90 77 97 108 109 106 118 120 139 128 129 120 126 118 121 119 112 117 118 141 157
191 188 188 187 185 186 184 183 184 174 172 172 166 162 161 140 118 91 65 32 47 76 101 96 102 89 96 138 119 125 134 124 117 102 123 132 127 160 165 166 210 223 235
200 194 192 192 192 189 191 187 196 194 184 186 181 166 163 149 141 114 56 48 61 85 54 77 92 100 87 117 123 125 119 134 121 113 125 137 149 189 195 189 225 225 234
203 201 197 198 198 191 196 193 198 207 197 198 188 182 178 164 155 145 87 79 86 73 166 196 142 131 133 136 138 137 128 121 134 109 110 114 113 153 193 238 236 231 238
203 205 203 201 201 198 198 199 198 200 202 195 187 192 196 179 173 166 153 101 70 65 100 127 144 173 175 184 169 154 130 154 125 118 106 106 113 114 101 95 104 74 334
205 204 207 205 205 203 200 202 197 193 190 195 192 183 187 191 179 175 157 133 112 89 74 76 126 169 181 183 172 153 143 141 131 131 122 110 113 105 104 97 98 86 75
203 204 204 206 206 205 202 202 197 198 192 192 191 184 182 188 193 183 177 161 159 145 90 76 99 139 153 162 144 131 123 127 132 125 115 112 107 106 103 105 106 104 97
206 205 202 202 204 205 205 204 204 205 203 194 191 192 197 195 196 195 191 198 183 153 117 89 106 127 132 135 137 136 129 124 117 116 110 111 126 113 98 93 93 99 109
208 206 205 203 204 206 207 208 206 206 207 204 201 204 206 207 202 209 198 197 195 189 155 136 124 130 125 129 136 136 132 127 121 117 112 101 95 82 76 72 66 66 52
203 205 204 205 207 207 208 208 208 206 205 209 208 209 210 212 214 212 212 205 205 193 182 174 154 148 135 132 132 128 125 126 127 123 111 94 80 68 62 63 63 64 61